Weather History for KSLK - March, 2014

Change the Weather History Date:

Saturday, March 22, 2014

  Actual Average Record
Temperature  
Mean Temperature 16 °F 27 °F  
Max Temperature 32 °F 39 °F 75 °F (2012)
Min Temperature -1 °F 15 °F -10 °F (1992)
Degree Days  
Heating Degree Days 49 38  
Month to date heating degree days 1119 935  
Since 1 July heating degree days 8103 7640  
Cooling Degree Days 0 0  
Month to date cooling degree days 0 0  
Year to date cooling degree days 0 0  
Moisture  
Dew Point 22 °F    
Average Humidity 78    
Maximum Humidity 92    
Minimum Humidity 63    
Precipitation  
Precipitation 0.06 in 0.08 in 0.82 in (1999)
Month to date precipitation 0.71 1.49  
Year to date precipitation 3.33 5.23  
Sea Level Pressure  
Sea Level Pressure 29.69 in    
Wind  
Wind Speed 10 mph (WSW)    
Max Wind Speed 25 mph    
Max Gust Speed 35 mph    
Visibility 4 miles    
Events Fog , Snow    
T = Trace of Precipitation, MM = Missing Value Source: NWS Daily Summary

Daily Weather History Graph

Daily Weather History Graph

Search for Another Location

Airport or City:

Trip Planner

Search our weather history database for the weather conditions in past years. The results will help you decide how hot, cold, wet, or windy it might be!

Date:

Astronomy

Mar. 22, 2014 Rise Set
Actual Time 6:56 AM EDT 7:11 PM EDT
Civil Twilight 6:27 AM EDT 7:40 PM EDT
Nautical Twilight 5:53 AM EDT 8:14 PM EDT
Astronomical Twilight 5:18 AM EDT 8:50 PM EDT
Moon 12:39 AM EDT (3/22) 10:26 AM EDT (3/22)
Length of Visible Light 13h 13m
Length of Day
12h 15m
Waning Gibbous, 65% of the Moon is Illuminated
Mar 22
Waning Gibbous
Mar 23
Last Quarter
Mar 30
New
Apr 7
First Quarter
Apr 15
Full

Hourly Weather History & Observations

Time (EDT) Temp. Windchill Dew Point Humidity Pressure Visibility Wind Dir Wind Speed Gust Speed Precip Events Conditions
12:51 AM 6.1 °F - 3.0 °F 87% 30.03 in 10.0 mi Calm Calm - N/A   Clear
1:51 AM 3.9 °F - 1.0 °F 88% 30.01 in 10.0 mi Calm Calm - N/A   Clear
2:51 AM -0.0 °F -7.9 °F -2.9 °F 88% 29.94 in 10.0 mi NNE 3.5 mph - N/A   Clear
3:51 AM 6.1 °F - 1.9 °F 83% 29.91 in 10.0 mi Calm Calm - N/A   Clear
4:51 AM 12.9 °F - 10.0 °F 88% 29.82 in 10.0 mi Calm Calm - N/A   Mostly Cloudy
5:51 AM 12.9 °F 6.9 °F 9.0 °F 84% 29.83 in 10.0 mi NE 3.5 mph - N/A   Overcast
6:35 AM 15.1 °F 9.4 °F 12.9 °F 91% 29.74 in 1.8 mi SSW 3.5 mph - 0.00 in Snow Light Snow
6:43 AM 15.1 °F - 12.9 °F 91% 29.73 in 0.2 mi Calm Calm - 0.01 in Fog , Snow Heavy Snow
6:51 AM 16.0 °F 8.8 °F 12.9 °F 88% 29.78 in 0.2 mi ENE 4.6 mph - 0.02 in Fog , Snow Heavy Snow
6:58 AM 16.0 °F 7.4 °F 12.9 °F 88% 29.69 in 0.5 mi ENE 5.8 mph - 0.01 in Fog , Snow Snow
7:05 AM 17.1 °F 7.6 °F 14.0 °F 88% 29.68 in 1.0 mi ENE 6.9 mph - 0.01 in Snow Light Snow
7:18 AM 19.0 °F 11.1 °F 17.1 °F 92% 29.65 in 2.5 mi NE 5.8 mph - 0.01 in Snow Light Snow
7:22 AM 19.0 °F 12.3 °F 17.1 °F 92% 29.65 in 4.0 mi Variable 4.6 mph - 0.01 in Snow Light Snow
7:51 AM 19.9 °F 12.1 °F 18.0 °F 92% 29.67 in 10.0 mi ENE 5.8 mph - 0.01 in   Overcast
8:51 AM 30.0 °F 21.7 °F 19.9 °F 66% 29.58 in 7.0 mi SSE 9.2 mph - N/A   Overcast
9:42 AM 30.9 °F 18.1 °F 25.0 °F 79% 29.53 in 2.5 mi SSW 21.9 mph 33.4 mph 0.00 in Snow Light Snow
9:47 AM 30.2 °F 18.5 °F 24.8 °F 80% 29.53 in 0.8 mi SSW 17.3 mph 33.4 mph 0.00 in Snow Light Snow
9:51 AM 30.0 °F 16.6 °F 26.1 °F 85% 29.59 in 0.5 mi SSW 23.0 mph 29.9 mph 0.00 in Fog , Snow Snow
10:01 AM 28.9 °F 15.8 °F 26.1 °F 89% 29.52 in 0.2 mi SSW 20.7 mph 34.5 mph 0.00 in Fog , Snow Snow
10:16 AM 28.9 °F 16.5 °F 26.1 °F 89% 29.51 in 0.2 mi SSW 18.4 mph 27.6 mph 0.00 in Fog , Snow Snow
10:20 AM 28.9 °F 16.9 °F 26.1 °F 89% 29.51 in 0.5 mi SSW 17.3 mph 27.6 mph 0.00 in Fog , Snow Snow
10:31 AM 28.9 °F 17.3 °F 26.1 °F 89% 29.51 in 1.5 mi SW 16.1 mph - 0.00 in Snow Light Snow
10:37 AM 28.9 °F 21.1 °F 26.1 °F 89% 29.51 in 3.0 mi SW 8.1 mph 23.0 mph 0.00 in Snow Light Snow
10:51 AM 28.9 °F 16.1 °F 26.1 °F 89% 29.57 in 3.0 mi SW 19.6 mph 27.6 mph 0.00 in Snow Light Snow
11:07 AM 28.9 °F 16.1 °F 25.0 °F 85% 29.50 in 2.5 mi SW 19.6 mph 27.6 mph 0.00 in Snow Light Snow
11:31 AM 28.9 °F 16.9 °F 26.1 °F 89% 29.50 in 1.2 mi SW 17.3 mph 26.5 mph 0.00 in Snow Light Snow
11:51 AM 28.9 °F 17.7 °F 26.1 °F 89% 29.59 in 1.0 mi SW 15.0 mph 23.0 mph 0.01 in Snow Light Snow
12:20 PM 30.0 °F 19.5 °F 28.0 °F 92% 29.51 in 1.2 mi SW 13.8 mph 23.0 mph 0.00 in Snow Light Snow
12:39 PM 32.0 °F 22.1 °F 28.9 °F 88% 29.53 in 0.8 mi WSW 13.8 mph 28.8 mph 0.00 in Snow Light Snow
12:48 PM 32.0 °F 22.1 °F 28.4 °F 87% 29.53 in 1.2 mi WSW 13.8 mph 32.2 mph 0.00 in Snow Light Snow
12:49 PM 32.0 °F 21.6 °F 28.4 °F 87% 29.54 in 1.2 mi WSW 15.0 mph 32.2 mph 0.00 in Snow Light Snow
12:51 PM 32.0 °F 19.8 °F 28.0 °F 85% 29.62 in 1.0 mi WSW 20.7 mph 32.2 mph 0.00 in Snow Light Snow
12:54 PM 32.0 °F 20.1 °F 28.0 °F 85% 29.54 in 1.0 mi WSW 19.6 mph 32.2 mph 0.00 in Snow Light Snow
1:01 PM 32.0 °F 19.8 °F 28.0 °F 85% 29.54 in 1.0 mi WSW 20.7 mph 27.6 mph 0.00 in Snow Light Snow
1:15 PM 30.9 °F 19.8 °F 28.0 °F 89% 29.55 in 0.5 mi WSW 16.1 mph 34.5 mph 0.00 in Fog , Snow Snow
1:20 PM 30.9 °F 20.7 °F 28.0 °F 89% 29.56 in 0.2 mi WSW 13.8 mph 34.5 mph 0.00 in Fog , Snow Snow
1:31 PM 30.9 °F 22.2 °F 28.0 °F 89% 29.57 in 0.2 mi West 10.4 mph 25.3 mph 0.00 in Fog , Snow Snow
1:33 PM 30.0 °F 20.5 °F 28.0 °F 92% 29.57 in 0.2 mi WSW 11.5 mph 25.3 mph 0.00 in Fog , Snow Snow
1:51 PM 30.0 °F 24.1 °F 28.0 °F 92% 29.67 in 0.5 mi West 5.8 mph 17.3 mph 0.01 in Fog , Snow Snow
2:03 PM 30.0 °F 19.5 °F 27.0 °F 88% 29.60 in 0.2 mi West 13.8 mph 21.9 mph 0.00 in Fog , Snow Snow
2:07 PM 30.0 °F 19.5 °F 26.1 °F 85% 29.61 in 0.5 mi West 13.8 mph 32.2 mph 0.01 in Fog , Snow Snow
2:18 PM 30.0 °F 18.7 °F 25.0 °F 82% 29.63 in 2.0 mi West 16.1 mph 26.5 mph 0.01 in Snow Light Snow
2:27 PM 30.0 °F 18.7 °F 24.1 °F 79% 29.64 in 0.8 mi WSW 16.1 mph 29.9 mph 0.01 in Snow Light Snow
2:47 PM 28.4 °F 15.8 °F 24.8 °F 86% 29.66 in 1.8 mi West 18.4 mph 28.8 mph 0.01 in Snow Light Snow
2:51 PM 28.9 °F 17.7 °F 24.1 °F 82% 29.75 in 2.5 mi West 15.0 mph 29.9 mph 0.01 in   Overcast
2:58 PM 28.9 °F 21.9 °F 24.1 °F 82% 29.68 in 5.0 mi West 6.9 mph 29.9 mph 0.00 in   Haze
3:19 PM 28.0 °F 18.6 °F 23.0 °F 81% 29.70 in 8.0 mi West 10.4 mph 19.6 mph 0.00 in   Overcast
3:51 PM 27.0 °F 18.0 °F 23.0 °F 85% 29.83 in 8.0 mi West 9.2 mph 17.3 mph 0.00 in   Overcast
4:51 PM 27.0 °F 15.6 °F 21.9 °F 81% 29.86 in 10.0 mi WSW 13.8 mph 18.4 mph N/A   Overcast
5:03 PM 28.0 °F 18.6 °F 21.9 °F 78% 29.79 in 10.0 mi WSW 10.4 mph - N/A   Overcast
5:51 PM 28.0 °F 18.6 °F 21.9 °F 78% 29.89 in 10.0 mi WSW 10.4 mph - N/A   Overcast
6:51 PM 28.0 °F 19.3 °F 21.9 °F 78% 29.90 in 10.0 mi SW 9.2 mph - N/A   Overcast
7:06 PM 28.0 °F 21.7 °F 23.0 °F 81% 29.83 in 10.0 mi SW 5.8 mph - N/A   Overcast
7:51 PM 28.0 °F 19.3 °F 23.0 °F 81% 29.91 in 6.0 mi SW 9.2 mph - 0.00 in Snow Light Snow
8:47 PM 28.4 °F 19.7 °F 24.8 °F 86% 29.84 in 8.0 mi SW 9.2 mph - 0.00 in Snow Light Snow
8:51 PM 28.0 °F 19.3 °F 25.0 °F 88% 29.90 in 7.0 mi SW 9.2 mph - 0.00 in Snow Light Snow
9:51 PM 28.0 °F 18.1 °F 24.1 °F 85% 29.91 in 7.0 mi WSW 11.5 mph 21.9 mph 0.00 in Snow Light Snow
9:58 PM 28.0 °F 17.5 °F 24.1 °F 85% 29.85 in 7.0 mi WSW 12.7 mph 21.9 mph 0.00 in Snow Light Snow
10:51 PM 28.0 °F 18.6 °F 23.0 °F 81% 29.91 in 7.0 mi WSW 10.4 mph 18.4 mph 0.00 in   Overcast
11:08 PM 28.0 °F 18.1 °F 23.0 °F 81% 29.85 in 7.0 mi WSW 11.5 mph 21.9 mph N/A   Overcast
11:51 PM 27.0 °F 18.0 °F 21.9 °F 81% 29.91 in 6.0 mi WSW 9.2 mph 20.7 mph N/A   Haze